Showing default

SHIYAN 27E, 63603

Orbit data source: Space-Track

SHIYAN 27E, 63603 is a payload satellite owned by CAST (CN) in SSO that was launched on Fri, 18 Apr 2025 UTC via a CHANG ZHENG 6A launch vehicle from the Taiyaun Space Center, China (TSC). Payload-class satellites include a variety of spacecraft equipped with specific instruments for various scientific and technological missions. These include communications satellites like Starlink; space stations such as the ISS; scientific satellites like the Hubble; Earth observation satellites from companies like Planet Labs, Umbra, and HawkEye 360; GPS; miniature CubeSats for education and research; and military/defense satellites.

Loading next visibility...
Identifier
63603, 2025-078E
Orbit
SSO
Country
Flag of CNCN / PRC
Related business
Manufacturer
CAST
Mission
Operational Defense Radar Imaging
Bus & Motor
SW27, Unknown motor
Mass
300 kg wet, ~300 kg dry
Launch date (UTC)
2025-04-18 (5 months ago)
Launch vehicle
CHANG ZHENG 6A
Launch site
Taiyaun Space Center, China (TSC)
Object type
Payload
Rocket body
Debris
Shape & HBR
Box + 1 Pan, 5.0 m
Radar Cross Section
13.200 m², Large (>1 m²)

Expand to show TLE details & history
Last TLE update: 14 hours ago

TLE from 14 hours ago
0 SHIYAN 27E
1 63603U 25078E   25260.29562983  .00000005  00000-0  69164-4 0  9994
2 63603  99.6935 266.5596 0000847  81.8422 278.2813 13.57213320 20510
Epoch: 2025-09-17T07:05Z
TLE epoch observation values (Epoch: 2025-09-17T07:05:42.417Z)
Latitude
0.00005°
Longitude
163.65923°
Altitude
1,048.542 km
Speed
7.328 km/s
True Right ascension
17h 46m 14s
True Declination
0° 00' 00"
Sunlit
Object was in daylight at epoch
Visualization orbit readout
Latitude
Unknown
Longitude
Unknown
Altitude
Unknown
Speed
Unknown
Apparent Right ascension
Unknown
Apparent Declination
Unknown
Sunlit
N/A
Visualization observer readout
Local Sidereal Time
13:55:35
Azimuth
Unknown
Elevation
Unknown
Doppler factor
Unknown
Orbital elements
Apogee altitude
1,043.757 km
Perigee altitude
1,042.5 km
Semi-major axis
7,421.265 km
Eccentricity
0.00008
Inclination
99.6935°
RAAN
266.5596°
Arg. of periapsis
81.8422°
True anomaly
278.2717°
Mean anomaly
278.2813°
Eccentric anomaly
278.2765°
Mean motion
3.39489 °/min
Orbital period
106.04 mins
BSTAR
0.000069164
Loading maneuver chart data...
Computing Atmospheric mass density...
Loading historical data...
Loading historical data...
Loading historical data...
Loading historical data...
Loading historical data...
Loading historical data...
Loading historical data...

Documentation

Showing up to 5 results
|